Regional Weather Roundup
Issued by NWS

Home | Current Version | Previous Version | Text Only | Print | Product List | Glossary On
Versions: 1 2 3 4 5 6 7 8 9 10 11 12 13 14 15 16 17 18 19 20 21 22 23 24 25 26 27 28 29 30 31 32 33 34 35 36 37 38 39 40 41 42 43 44 45 46 47 48 49 50
000
ASUS43 KTOP 191659
RWRKS

WEATHER ROUNDUP FOR KANSAS
NATIONAL WEATHER SERVICE GOODLAND KS
1200 PM CDT SAT APR 19 2014

NOTE:  "FAIR" INDICATES FEW OR NO CLOUDS BELOW 12,000 FEET WITH NO
SIGNIFICANT WEATHER AND/OR OBSTRUCTIONS TO VISIBILITY.

KSZ001>006-013>018-027>032-041>047-191800-
NORTHWEST KANSAS

CITY           SKY/WX    TMP DP  RH WIND       PRES   REMARKS
GOODLAND       PTSUNNY   64  45  49 N22G29    29.98R
HAYS           SUNNY     72  50  46 S32G38    29.93F
HILL CITY      MOSUNNY   73  46  38 SW12G22   29.92S
RUSSELL        MOSUNNY   76  49  38 S37G46    29.94F
$$

KSZ061>065-074>080-084>089-191800-
SOUTHWEST KANSAS

CITY           SKY/WX    TMP DP  RH WIND       PRES   REMARKS
DODGE CITY     PTSUNNY   71  47  42 SW28G37   30.00S
ELKHART          N/A     69  43  39 SW15        N/A
GARDEN CITY    PTSUNNY   69  47  45 SW20G25   29.96F
GREAT BEND     SUNNY     73  50  43 S31G40    29.97S
LIBERAL        CLOUDY    66  46  48 S23G29    30.02S
$$

KSZ066>073-081>083-090>101-191800-
SOUTHEAST KANSAS

CITY           SKY/WX    TMP DP  RH WIND       PRES   REMARKS
CHANUTE        MOSUNNY   72  48  42 S17       30.17F
COFFEYVILLE    PTSUNNY   72  48  42 S20       30.17F
HUTCHINSON     SUNNY     73  47  39 S33G44    30.04F
NEWTON         MOSUNNY   72  45  37 S29       30.11S
PARSONS        MOSUNNY   73  47  39 S13       30.17F
WICHITA INTL   MOSUNNY   72  47  40 S28G40    30.09F
WICHITA JABRA  MOSUNNY   72  47  40 S28G36    30.09F
WINFIELD       MOSUNNY   73  46  38 S21G31    30.13F
$$

KSZ007>012-019>026-033>040-048>060-102>105-191800-
NORTHEAST KANSAS

CITY           SKY/WX    TMP DP  RH WIND       PRES   REMARKS
CONCORDIA      PTSUNNY   72  48  42 S26G35    30.01S
EMPORIA        PTSUNNY   73  44  35 S25G32    30.10F
LAWRENCE       PTSUNNY   74  46  36 S20G29    30.13F
MANHATTAN      PTSUNNY   74  45  35 S25G37    30.04F
OLATHE IND     MOSUNNY   70  45  40 S16       30.16S
OLATHE EXE     MOSUNNY   71  46  40 S16       30.15S
SALINA         MOSUNNY   75  47  36 S31G46    30.02F
TOPEKA BILLARD PTSUNNY   75  45  34 S22G30    30.11F
TOPEKA FORBES  PTSUNNY   73  45  36 S20G29    30.10F
$$



USA.gov is the U.S. government's official web portal to all federal, state and local government web resources and services.